This demonstration page uses our WeatherBlox Daily Observations layout. Learn more.

Left ArrowRight Arrow

Hourly Observations for March 1, 2015

Temp ( °F °C ) Dew Point ( °F °C ) Humidity (%) Winds ( mph kmh ) Pressure ( in mb ) Visibility ( mi km ) Precip ( " mm )
12:53 am 00:53 Mostly Cloudy 13 -10.6 11 -11.7 92 92 W 7 11 30.37 1028 10 16 N/A
1:53 am 01:53 Partly Cloudy 14 -10 11 -11.7 88 88 WNW 13 20 30.38 1029 10 16 N/A
2:53 am 02:53 Clear 13 -10.6 9 -12.8 84 84 NW 8 13 30.39 1029 10 16 N/A
3:53 am 03:53 Clear 9 -12.8 6 -14.4 88 88 W 8 13 30.40 1029 10 16 N/A
4:53 am 04:53 Clear 9 -12.8 7 -13.9 92 92 WSW 8 13 30.40 1030 10 16 N/A
5:53 am 05:53 Clear 10 -12.2 7 -13.9 87 87 SW 8 13 30.42 1030 10 16 N/A
6:53 am 06:53 Clear 9 -12.8 7 -13.9 92 92 SW 9 15 30.42 1030 10 16 N/A
7:53 am 07:53 Sunny 14 -10 11 -11.7 88 88 SW 10 17 30.41 1030 10 16 N/A
8:53 am 08:53 Partly Cloudy 20 -6.7 16 -8.9 85 85 SW 12 19 30.40 1030 10 16 N/A
9:53 am 09:53 Partly Cloudy 24 -4.4 17 -8.3 75 75 SSW 13 20 30.40 1029 10 16 N/A
10:53 am 10:53 Cloudy 29 -1.7 14 -10 54 54 SW 10 17 30.37 1028 10 16 N/A
11:53 am 11:53 Sunny 32 undefined 16 -9 51 51 SW 14 22 30.33 1027 10 16 N/A
12:53 pm 12:53 Sunny 33 0.6 12 -11.1 42 42 SW 14 22 30.32 1027 10 16 N/A
1:53 pm 13:53 Sunny 34 1.1 11 -11.7 38 38 SSW 13 20 30.28 1026 10 16 N/A
2:53 pm 14:53 Sunny 35 1.7 9 -12.8 34 34 S 9 15 30.25 1025 10 16 N/A
3:53 pm 15:53 Sunny 35 1.7 8 -13.3 32 32 SSW 13 20 30.23 1024 10 16 N/A
4:53 pm 16:53 Sunny 35 1.7 8 -13.3 32 32 S 8 13 30.20 1023 10 16 N/A
5:53 pm 17:53 Sunny 26 -3.3 11 -11.7 53 53 ESE 6 9 30.18 1022 10 16 N/A
6:53 pm 18:53 Clear 22 -5.6 12 -11.1 66 66 ESE 6 9 30.17 1022 10 16 N/A
7:53 pm 19:53 Clear 21 -6.1 11 -11.7 65 65 ENE 6 9 30.14 1021 10 16 N/A
8:53 pm 20:53 Clear 21 -6.1 12 -11.1 68 68 ENE 7 11 30.09 1019 10 16 N/A
9:53 pm 21:53 Clear 27 -2.8 9 -12.8 46 46 ESE 5 7 30.05 1018 10 16 N/A
10:53 pm 22:53 Clear 21 -6.1 9 -12.8 59 59 NE 6 9 30.02 1017 10 16 N/A
11:53 pm 23:53 Clear 20 -6.7 11 -11.7 68 68 ENE 8 13 29.98 1015 10 16 N/A

Powered by AerisWeather